When you browse on this site, cookies collect data to enhance your experience and personalize the content and advertising you see.
Visit our Privacy Policy to learn more. By continuing to use the site, you agree to this use of cookies and data.
  • In Latvia
  • List of Countries
  • For 7 days
  • Water Temperature
  • Weather Map
  • Weather Widgets
  • user-avatar
    Login

    Hourly Weather Kaprun

    Today, 20 January, Monday

    Time Temperature Precipitation Wind Pressure Humidity
    00:00 -17°C° 0 mm 2 mps 601 mmHg 90%
    01:00 -16°C° 0 mm 2 mps 601 mmHg 90%
    02:00 -16°C° 0 mm 2 mps 602 mmHg 90%
    03:00 -16°C° 0 mm 2 mps 602 mmHg 91%
    04:00 -16°C° 0 mm 2 mps 602 mmHg 92%
    05:00 -17°C° 0 mm 2 mps 602 mmHg 91%
    06:00 -17°C° 0 mm 2 mps 602 mmHg 90%
    07:00 -15°C° 0 mm 1 mps 603 mmHg 89%
    08:00 -14°C° 0 mm 1 mps 603 mmHg 87%
    09:00 -12°C° 0 mm 1 mps 604 mmHg 84%
    10:00 -11°C° 0 mm 1 mps 605 mmHg 81%
    11:00 -10°C° 0 mm 1 mps 605 mmHg 77%
    12:00 -9°C° 0 mm 1 mps 606 mmHg 74%
    13:00 -7°C° 0 mm 1 mps 606 mmHg 70%
    14:00 -8°C° 0 mm 1 mps 606 mmHg 73%
    15:00 -9°C° 0 mm 1 mps 605 mmHg 77%
    16:00 -9°C° 0 mm 1 mps 605 mmHg 80%
    17:00 -10°C° 0 mm 1 mps 605 mmHg 73%
    18:00 -11°C° 0 mm 1 mps 605 mmHg 67%
    19:00 -14°C° 0 mm 2 mps 605 mmHg 61%
    20:00 -13°C° 0 mm 2 mps 605 mmHg 57%
    21:00 -12°C° 0 mm 2 mps 605 mmHg 54%
    22:00 -12°C° 0 mm 2 mps 606 mmHg 50%
    23:00 -10°C° 0 mm 2 mps 606 mmHg 48%

    Tomorrow, 21 January, Tuesday

    Time Temperature Precipitation Wind Pressure Humidity
    00:00 -10°C° 0 mm 2 mps 606 mmHg 46%
    01:00 -9°C° 0 mm 2 mps 606 mmHg 44%
    02:00 -9°C° 0 mm 2 mps 606 mmHg 43%
    03:00 -8°C° 0 mm 2 mps 606 mmHg 42%
    04:00 -8°C° 0 mm 2 mps 606 mmHg 41%
    05:00 -8°C° 0 mm 2 mps 606 mmHg 39%
    06:00 -7°C° 0 mm 2 mps 606 mmHg 37%
    07:00 -7°C° 0 mm 2 mps 606 mmHg 36%
    08:00 -6°C° 0 mm 2 mps 607 mmHg 39%
    09:00 -2°C° 0 mm 1 mps 607 mmHg 43%
    10:00 -1°C° 0 mm 1 mps 608 mmHg 46%
    11:00 0°C° 0 mm 1 mps 608 mmHg 53%
    12:00 +1°C° 0 mm 1 mps 608 mmHg 60%
    13:00 +2°C° 0 mm 1 mps 608 mmHg 67%
    14:00 +1°C° 0 mm 1 mps 607 mmHg 59%
    15:00 0°C° 0 mm 1 mps 606 mmHg 50%
    16:00 -1°C° 0 mm 1 mps 606 mmHg 42%
    17:00 -3°C° 0 mm 2 mps 605 mmHg 39%
    18:00 -4°C° 0 mm 2 mps 605 mmHg 35%
    19:00 -5°C° 0 mm 2 mps 605 mmHg 31%
    20:00 -5°C° 0 mm 2 mps 604 mmHg 31%
    21:00 -5°C° 0 mm 2 mps 604 mmHg 30%
    22:00 -5°C° 0 mm 2 mps 604 mmHg 30%
    23:00 -5°C° 0 mm 2 mps 604 mmHg 30%

    Day after tomorrow, 22 January, Wednesday

    Time Temperature Precipitation Wind Pressure Humidity
    00:00 -5°C° 0 mm 2 mps 604 mmHg 30%
    01:00 -5°C° 0 mm 2 mps 604 mmHg 30%
    02:00 -5°C° 0 mm 2 mps 603 mmHg 31%
    03:00 -5°C° 0 mm 2 mps 603 mmHg 31%
    04:00 -5°C° 0 mm 2 mps 603 mmHg 31%
    05:00 -5°C° 0 mm 2 mps 603 mmHg 31%
    06:00 -5°C° 0 mm 2 mps 602 mmHg 31%
    07:00 -3°C° 0 mm 1 mps 602 mmHg 31%
    08:00 -1°C° 0 mm 1 mps 603 mmHg 37%
    09:00 0°C° 0 mm 1 mps 604 mmHg 43%
    10:00 +1°C° 0 mm 1 mps 604 mmHg 48%
    11:00 +1°C° 0 mm 1 mps 604 mmHg 57%
    12:00 +2°C° 0 mm 1 mps 604 mmHg 66%
    13:00 +2°C° 0 mm 1 mps 604 mmHg 75%
    14:00 +1°C° 0 mm 1 mps 603 mmHg 67%
    15:00 0°C° 0 mm 1 mps 602 mmHg 59%
    16:00 0°C° 0 mm 1 mps 602 mmHg 51%
    17:00 -1°C° 0 mm 1 mps 601 mmHg 48%
    18:00 -2°C° 0 mm 1 mps 601 mmHg 45%
    19:00 -3°C° 0 mm 1 mps 601 mmHg 42%
    20:00 -4°C° 0 mm 1 mps 601 mmHg 43%
    21:00 -6°C° 0 mm 2 mps 601 mmHg 43%
    22:00 -6°C° 0 mm 2 mps 601 mmHg 43%
    23:00 -6°C° 0 mm 2 mps 601 mmHg 42%

    23 January, Thursday

    Time Temperature Precipitation Wind Pressure Humidity
    00:00 -4°C° 0 mm 1 mps 601 mmHg 41%
    01:00 -4°C° 0 mm 1 mps 601 mmHg 40%
    02:00 -4°C° 0 mm 1 mps 601 mmHg 39%
    03:00 -4°C° 0 mm 1 mps 601 mmHg 39%
    04:00 -4°C° 0 mm 1 mps 600 mmHg 38%
    05:00 -4°C° 0 mm 1 mps 600 mmHg 38%
    06:00 -4°C° 0 mm 1 mps 600 mmHg 38%
    07:00 -4°C° 0 mm 1 mps 600 mmHg 38%
    08:00 -3°C° 0 mm 1 mps 601 mmHg 43%
    09:00 -2°C° 0 mm 1 mps 601 mmHg 48%
    10:00 0°C° 0 mm 1 mps 602 mmHg 53%
    11:00 -2°C° 0 mm 2 mps 602 mmHg 58%
    12:00 -1°C° 0 mm 2 mps 602 mmHg 63%
    13:00 -1°C° 0 mm 2 mps 601 mmHg 68%
    14:00 -1°C° 0 mm 2 mps 601 mmHg 68%
    15:00 -2°C° 0 mm 2 mps 600 mmHg 67%
    16:00 -4°C° 0 mm 3 mps 600 mmHg 67%
    17:00 -5°C° 0 mm 3 mps 599 mmHg 64%
    18:00 -5°C° 0 mm 2 mps 599 mmHg 61%
    19:00 -6°C° 0 mm 2 mps 599 mmHg 58%
    20:00 -6°C° 0 mm 2 mps 599 mmHg 55%
    21:00 -5°C° 0 mm 2 mps 599 mmHg 52%
    22:00 -3°C° 0 mm 1 mps 599 mmHg 49%
    23:00 -3°C° 0 mm 1 mps 599 mmHg 48%

    24 January, Friday

    Time Temperature Precipitation Wind Pressure Humidity
    00:00 -3°C° 0 mm 1 mps 599 mmHg 46%
    01:00 -3°C° 0 mm 1 mps 599 mmHg 44%
    02:00 -3°C° 0 mm 1 mps 598 mmHg 45%
    03:00 -3°C° 0 mm 1 mps 598 mmHg 45%
    04:00 -3°C° 0 mm 1 mps 598 mmHg 46%
    05:00 -3°C° 0 mm 1 mps 598 mmHg 47%
    06:00 -5°C° 0 mm 2 mps 598 mmHg 48%
    07:00 -5°C° 0 mm 2 mps 598 mmHg 50%
    08:00 -2°C° 0 mm 1 mps 598 mmHg 54%
    09:00 -1°C° 0 mm 1 mps 599 mmHg 59%
    10:00 0°C° 0 mm 1 mps 599 mmHg 63%
    11:00 +1°C° 0 mm 1 mps 599 mmHg 68%
    12:00 +1°C° 0 mm 1 mps 599 mmHg 73%
    13:00 +2°C° 0 mm 1 mps 599 mmHg 78%
    14:00 +1°C° 0 mm 1 mps 598 mmHg 77%
    15:00 0°C° 0 mm 1 mps 598 mmHg 76%
    16:00 -3°C° 0 mm 2 mps 597 mmHg 76%
    17:00 -4°C° 0 mm 2 mps 597 mmHg 76%
    18:00 -5°C° 0 mm 2 mps 596 mmHg 76%
    19:00 -6°C° 0 mm 2 mps 596 mmHg 76%
    20:00 -6°C° 0 mm 2 mps 596 mmHg 74%
    21:00 -6°C° 0 mm 2 mps 596 mmHg 73%
    22:00 -7°C° 0 mm 2 mps 596 mmHg 72%
    23:00 -6°C° 0 mm 1 mps 595 mmHg 72%

    25 January, Saturday

    Time Temperature Precipitation Wind Pressure Humidity
    00:00 -6°C° 0 mm 1 mps 595 mmHg 73%
    01:00 -6°C° 0 mm 1 mps 595 mmHg 73%
    02:00 -6°C° 0 mm 1 mps 595 mmHg 73%
    03:00 -6°C° 0 mm 1 mps 594 mmHg 73%
    04:00 -6°C° 0 mm 1 mps 594 mmHg 72%
    05:00 -7°C° 0 mm 1 mps 594 mmHg 75%
    06:00 -7°C° 0 mm 1 mps 594 mmHg 78%
    07:00 -7°C° 0 mm 1 mps 594 mmHg 80%
    08:00 -6°C° 0 mm 1 mps 595 mmHg 81%
    09:00 -4°C° 0 mm 1 mps 595 mmHg 83%
    10:00 -3°C° 0 mm 1 mps 596 mmHg 84%
    11:00 -2°C° 0 mm 1 mps 596 mmHg 84%
    12:00 -3°C° 0 mm 0 mps 596 mmHg 83%
    13:00 -2°C° 0 mm 0 mps 596 mmHg 83%
    14:00 -3°C° 0 mm 0 mps 596 mmHg 85%
    15:00 -3°C° 0 mm 0 mps 596 mmHg 88%
    16:00 -4°C° 0 mm 0 mps 595 mmHg 90%
    17:00 -5°C° 0 mm 0 mps 595 mmHg 89%
    18:00 -4°C° 0 mm 1 mps 595 mmHg 89%
    19:00 -6°C° 0 mm 1 mps 594 mmHg 88%
    20:00 -6°C° 0 mm 1 mps 594 mmHg 86%
    21:00 -7°C° 0 mm 1 mps 594 mmHg 85%
    22:00 -7°C° 0 mm 1 mps 595 mmHg 83%
    23:00 -7°C° 0 mm 1 mps 595 mmHg 82%
    Show more